Weather Roundup
Issued by NWS Chicago, IL

Home | Current Version | Previous Version | Graphics & Text | Print | Product List | Glossary On
Versions: 1 2 3 4 5 6 7 8 9 10 11 12 13 14 15 16 17 18 19 20 21 22 23 24 25 26 27 28 29 30 31 32 33 34 35 36 37 38 39 40 41 42 43 44 45 46 47 48 49 50
842
NZUS59 KLOT 241608
HRRLOT

CHICAGO AREA WEATHER ROUNDUP
NATIONAL WEATHER SERVICE CHICAGO/ROMEOVILLE IL
1100 AM CDT SUN JUL 24 2016

NOTE: "FAIR" INDICATES FEW OR NO CLOUDS BELOW 12,000 FEET WITH NO
SIGNIFICANT WEATHER AND/OR OBSTRUCTIONS TO VISIBILITY.

* THESE STATIONS ARE NOT UNDER NWS QUALITY CONTROL. THEY ALSO MAY NOT
  REPORT WEATHER SUCH AS PRECIPITATION OR FOG.

ILZ005-006-012>014-019>023-241700-
NORTHEAST ILLINOIS

CITY           SKY/WX    TMP DP  RH WIND       PRES   REMARKS
OHARE          PTSUNNY   84  76  76 SW14G23   29.89F HX  93
MIDWAY         PTSUNNY   86  75  69 S15G24    29.90S HX  95
AURORA         CLOUDY    86  78  77 S14       29.90F HAZE    HX  98
LANSING*       MOSUNNY   84  75  73 S18       29.93S HX  92
JOLIET*        PTSUNNY   87  80  80 S10       29.91S HX 103
WAUKEGAN       CLOUDY    85  76  74 SW12      29.87S HX  94
DUPAGE AIRPORT CLOUDY    86  77  74 S15       29.90S HX  97
WHEELING       CLOUDY    84  75  74 S13G21    29.89F HX  92
MORRIS*        SUNNY     86  79  80 S9        29.90S HX 100
LEWIS AIRPORT* PTSUNNY   85  76  74 SW14      29.91F HX  94
NORTHERLY ISL    N/A     83  73  72 S15         N/A  HX  89
$$

WIZ051-052-058>065-066-070>072-241700-
SOUTHEAST WISCONSIN

CITY           SKY/WX    TMP DP  RH WIND       PRES   REMARKS
MILWAUKEE      CLOUDY    85  76  74 SW12      29.85R HX  94
KENOSHA*       CLOUDY    85  76  74 S13       29.87S HX  94
RACINE*        CLOUDY    84  75  74 SW13G20   29.87S HX  92
BURLINGTON     SUNNY     85  78  79 S12       29.86R HX  96
WAUKESHA       MOSUNNY   81  73  78 SW9G17    29.87R HX  85
$$

INZ001>003-010>013-019-020-241700-
NORTHWEST INDIANA

CITY           SKY/WX    TMP DP  RH WIND       PRES   REMARKS
GARY*          PTSUNNY   84 N/A N/A S12       29.92F
MICHIGAN CITY* NOT AVBL
RENSSELAER*    NOT AVBL
VALPARAISO     SUNNY     84  74  71 S12       29.95S HX  91
$$

LMZ740>746-241700-
SOUTHERN LAKE MICHIGAN

STATION/POSITION TIME  SKY/WX   TEMP WIND        PRES    VSBY
                                AIR  DIR/SP/G
                 (UTC)          (F)  (DEG/KT/KT) (MB)    (MI)
HARRISON CRIB    1500            78  190/ 21/ 22   N/A
BURNHAM HARBOR   1600            84  180/ 10/ 17   N/A
CALUMET HARBOR   1500            80  200/ 11/ 18 1012.2F
BURNS HARBOR     1506            81  190/ 16/ 21 1013.5F
MICHIGAN CITY    1500            80  160/ 16/ 21   N/A
$$

ABBREVIATIONS USED IN REMARKS
   TC - TEMPERATURE IN CELSIUS
  WCI - WIND CHILL INDEX
   HX - HEAT INDEX
  VSB - VISIBILITY
$$




USA.gov is the U.S. government's official web portal to all federal, state and local government web resources and services.